GLD1620 SGAS-SAEZ

Flight info

Callsign GLD1620
Flight time 1h 43m
Altitude 38000
Route ITAPE ASATI UP526 GEMSU UN785 GUA UZ129 PAGON PAGO7X
Aircraft A20N/M-SDE2E3FGHIRWXY/LB1

Departure

Time 2026-05-04 03:09
Airport Silvio Pettirossi International Airport (SGAS)

Arrival

Time 2026-05-04 04:52
Airport Ezeiza International Airport - Ministro Pistarini (SAEZ)
Time Latitude Longitude Altitude Speed Heading
2026-05-04 02:37 -25.24086 -57.51506 278 ft 0 kts 150°
2026-05-04 02:58 -25.24085 -57.51506 311 ft 1 kts 150°
2026-05-04 02:58 -25.24064 -57.51518 281 ft 4 kts 148°
2026-05-04 02:59 -25.24049 -57.51538 281 ft 4 kts 86°
2026-05-04 02:59 -25.24054 -57.51566 280 ft 2 kts 82°
2026-05-04 02:59 -25.24055 -57.51573 279 ft 0 kts 82°
2026-05-04 03:03 -25.24055 -57.51572 279 ft 1 kts 82°
2026-05-04 03:03 -25.24035 -57.51558 282 ft 2 kts 348°
2026-05-04 03:03 -25.24030 -57.51582 280 ft 5 kts 253°
2026-05-04 03:04 -25.23999 -57.51645 277 ft 17 kts 328°
2026-05-04 03:04 -25.23880 -57.51670 276 ft 19 kts
2026-05-04 03:04 -25.23733 -57.51633 274 ft 24 kts 13°
2026-05-04 03:04 -25.23554 -57.51584 271 ft 29 kts 14°
2026-05-04 03:05 -25.23417 -57.51551 270 ft 31 kts
2026-05-04 03:05 -25.23127 -57.51489 266 ft 32 kts 14°
2026-05-04 03:05 -25.22980 -57.51450 264 ft 34 kts 13°
2026-05-04 03:05 -25.22742 -57.51396 260 ft 31 kts 11°
2026-05-04 03:06 -25.22577 -57.51378 258 ft 13 kts 324°
2026-05-04 03:06 -25.22537 -57.51451 258 ft 0 kts 282°
2026-05-04 03:08 -25.22536 -57.51457 258 ft 5 kts 282°
2026-05-04 03:08 -25.22532 -57.51534 257 ft 12 kts 252°
2026-05-04 03:08 -25.22598 -57.51576 258 ft 0 kts 194°
2026-05-04 03:09 -25.22796 -57.51624 263 ft 82 kts 192°
2026-05-04 03:09 -25.23702 -57.51832 368 ft 169 kts 191°
2026-05-04 03:09 -25.24980 -57.52134 836 ft 209 kts 191°
2026-05-04 03:09 -25.26415 -57.52480 1222 ft 203 kts 192°
2026-05-04 03:10 -25.27787 -57.52822 1949 ft 202 kts 192°
2026-05-04 03:10 -25.29143 -57.53158 2570 ft 208 kts 193°
2026-05-04 03:10 -25.30663 -57.53529 3246 ft 237 kts 193°
2026-05-04 03:10 -25.32349 -57.53938 4179 ft 260 kts 194°
2026-05-04 03:11 -25.34174 -57.54376 5238 ft 275 kts 194°
2026-05-04 03:11 -25.36095 -57.54315 6507 ft 284 kts 163°
2026-05-04 03:11 -25.37804 -57.53183 7689 ft 290 kts 139°
2026-05-04 03:11 -25.39259 -57.51662 8878 ft 295 kts 134°
2026-05-04 03:12 -25.40700 -57.50010 10075 ft 300 kts 133°
2026-05-04 03:12 -25.42160 -57.48338 11135 ft 309 kts 137°
2026-05-04 03:12 -25.43901 -57.46823 11758 ft 330 kts 153°
2026-05-04 03:12 -25.46058 -57.45777 12314 ft 350 kts 161°
2026-05-04 03:13 -25.48411 -57.44868 13079 ft 361 kts 165°
2026-05-04 03:13 -25.50810 -57.44048 14146 ft 361 kts 166°
2026-05-04 03:13 -25.53231 -57.43268 15045 ft 365 kts 168°
2026-05-04 03:13 -25.55724 -57.42764 15950 ft 364 kts 178°
2026-05-04 03:14 -25.58242 -57.42764 16862 ft 364 kts 188°
2026-05-04 03:14 -25.60730 -57.43219 17732 ft 365 kts 194°
2026-05-04 03:14 -25.63217 -57.43765 18588 ft 368 kts 194°
2026-05-04 03:14 -25.65736 -57.44304 19383 ft 371 kts 194°
2026-05-04 03:15 -25.68284 -57.44844 20173 ft 374 kts 194°
2026-05-04 03:15 -25.70846 -57.45386 20948 ft 377 kts 194°
2026-05-04 03:15 -25.73449 -57.45938 21721 ft 381 kts 194°
2026-05-04 03:15 -25.76064 -57.46493 22493 ft 384 kts 194°
2026-05-04 03:16 -25.78700 -57.47053 23269 ft 388 kts 194°
2026-05-04 03:16 -25.81362 -57.47618 23953 ft 391 kts 194°
2026-05-04 03:16 -25.84043 -57.48187 24583 ft 395 kts 194°
2026-05-04 03:16 -25.86759 -57.48763 25216 ft 398 kts 195°
2026-05-04 03:17 -25.89492 -57.49344 25831 ft 402 kts 195°
2026-05-04 03:17 -25.92258 -57.49932 26445 ft 406 kts 195°
2026-05-04 03:17 -25.95032 -57.50522 27048 ft 409 kts 195°
2026-05-04 03:17 -25.97850 -57.51122 27626 ft 413 kts 196°
2026-05-04 03:18 -26.00692 -57.51727 28202 ft 417 kts 196°
2026-05-04 03:18 -26.03549 -57.52336 28762 ft 421 kts 196°
2026-05-04 03:18 -26.06443 -57.52945 29294 ft 425 kts 195°
2026-05-04 03:18 -26.09451 -57.53318 29821 ft 434 kts 189°
2026-05-04 03:19 -26.12429 -57.53370 30295 ft 440 kts 186°
2026-05-04 03:19 -26.15567 -57.53393 30809 ft 442 kts 187°
2026-05-04 03:19 -26.18631 -57.53425 31324 ft 443 kts 187°
2026-05-04 03:19 -26.21721 -57.53459 31957 ft 441 kts 187°
2026-05-04 03:20 -26.24771 -57.53491 32627 ft 438 kts 187°
2026-05-04 03:20 -26.27784 -57.53523 33309 ft 436 kts 188°
2026-05-04 03:20 -26.30847 -57.53555 33958 ft 433 kts 188°
2026-05-04 03:20 -26.33854 -57.53588 34511 ft 431 kts 188°
2026-05-04 03:21 -26.36802 -57.53620 35003 ft 429 kts 188°
2026-05-04 03:21 -26.39811 -57.53652 35505 ft 428 kts 189°
2026-05-04 03:21 -26.42733 -57.53683 35983 ft 426 kts 189°
2026-05-04 03:21 -26.45708 -57.53715 36451 ft 425 kts 189°
2026-05-04 03:22 -26.48645 -57.53747 36925 ft 424 kts 190°
2026-05-04 03:22 -26.51602 -57.53779 37381 ft 423 kts 190°
2026-05-04 03:22 -26.54533 -57.53810 37817 ft 422 kts 190°
2026-05-04 03:22 -26.57475 -57.53842 38009 ft 420 kts 190°
2026-05-04 03:23 -26.60381 -57.53874 38020 ft 418 kts 191°
2026-05-04 03:23 -26.66222 -57.53940 38030 ft 418 kts 191°
2026-05-04 03:24 -26.72025 -57.54005 38031 ft 418 kts 190°
2026-05-04 03:24 -26.77844 -57.54069 38030 ft 419 kts 190°
2026-05-04 03:25 -26.83667 -57.54134 38035 ft 419 kts 190°
2026-05-04 03:25 -26.89500 -57.54240 38032 ft 418 kts 191°
2026-05-04 03:26 -26.95301 -57.54429 38039 ft 418 kts 191°
2026-05-04 03:26 -27.01111 -57.54609 38037 ft 418 kts 191°
2026-05-04 03:27 -27.06882 -57.54780 38039 ft 418 kts 191°
2026-05-04 03:27 -27.12701 -57.54949 38041 ft 418 kts 191°
2026-05-04 03:28 -27.18511 -57.55118 38043 ft 418 kts 191°
2026-05-04 03:28 -27.24328 -57.55288 38039 ft 418 kts 191°
2026-05-04 03:29 -27.30183 -57.55459 38042 ft 418 kts 191°
2026-05-04 03:29 -27.35977 -57.55628 38043 ft 417 kts 191°
2026-05-04 03:30 -27.41789 -57.55798 38041 ft 417 kts 191°
2026-05-04 03:30 -27.47575 -57.56003 38045 ft 416 kts 192°
2026-05-04 03:31 -27.53316 -57.56253 38044 ft 415 kts 192°
2026-05-04 03:31 -27.59081 -57.56497 38044 ft 415 kts 192°
2026-05-04 03:32 -27.64847 -57.56735 38043 ft 414 kts 192°
2026-05-04 03:32 -27.70606 -57.56973 38042 ft 414 kts 192°
2026-05-04 03:33 -27.76355 -57.57211 38046 ft 413 kts 192°
2026-05-04 03:33 -27.82128 -57.57450 38048 ft 412 kts 192°
2026-05-04 03:34 -27.87860 -57.57687 38041 ft 412 kts 192°
2026-05-04 03:34 -27.93588 -57.57925 38049 ft 411 kts 192°
2026-05-04 03:35 -27.99342 -57.58164 38044 ft 411 kts 192°
2026-05-04 03:35 -28.05052 -57.58401 38046 ft 411 kts 191°
2026-05-04 03:36 -28.10726 -57.58637 38040 ft 411 kts 191°
2026-05-04 03:36 -28.16441 -57.58875 38048 ft 410 kts 191°
2026-05-04 03:37 -28.22147 -57.59102 38038 ft 411 kts 191°
2026-05-04 03:37 -28.27869 -57.59229 38046 ft 412 kts 190°
2026-05-04 03:38 -28.33585 -57.59348 38045 ft 411 kts 191°
2026-05-04 03:38 -28.39311 -57.59479 38046 ft 412 kts 191°
2026-05-04 03:39 -28.45040 -57.59613 38049 ft 412 kts 191°
2026-05-04 03:39 -28.50733 -57.59747 38056 ft 412 kts 191°
2026-05-04 03:40 -28.56463 -57.59882 38057 ft 412 kts 191°
2026-05-04 03:40 -28.62204 -57.60018 38059 ft 413 kts 190°
2026-05-04 03:41 -28.67949 -57.60154 38062 ft 413 kts 190°
2026-05-04 03:41 -28.73765 -57.60291 38064 ft 413 kts 190°
2026-05-04 03:42 -28.79527 -57.60428 38066 ft 413 kts 190°
2026-05-04 03:42 -28.85279 -57.60565 38067 ft 414 kts 190°
2026-05-04 03:43 -28.91039 -57.60701 38067 ft 414 kts 190°
2026-05-04 03:43 -28.96799 -57.60837 38068 ft 414 kts 190°
2026-05-04 03:44 -29.01601 -57.60951 38073 ft 414 kts 190°
2026-05-04 03:44 -29.07343 -57.61088 38069 ft 414 kts 190°
2026-05-04 03:45 -29.13080 -57.61225 38070 ft 414 kts 190°
2026-05-04 03:45 -29.18866 -57.61363 38068 ft 414 kts 190°
2026-05-04 03:46 -29.24628 -57.61500 38069 ft 414 kts 190°
2026-05-04 03:46 -29.30383 -57.61633 38070 ft 414 kts 190°
2026-05-04 03:47 -29.36153 -57.61762 38069 ft 414 kts 190°
2026-05-04 03:47 -29.41921 -57.61893 38061 ft 414 kts 190°
2026-05-04 03:48 -29.47682 -57.62024 38081 ft 414 kts 190°
2026-05-04 03:48 -29.53440 -57.62155 38069 ft 414 kts 190°
2026-05-04 03:49 -29.59170 -57.62286 38073 ft 414 kts 190°
2026-05-04 03:49 -29.64953 -57.62418 38076 ft 414 kts 190°
2026-05-04 03:50 -29.70732 -57.62550 38080 ft 415 kts 190°
2026-05-04 03:50 -29.76465 -57.62680 38078 ft 415 kts 190°
2026-05-04 03:51 -29.82223 -57.62812 38079 ft 415 kts 190°
2026-05-04 03:51 -29.87993 -57.62944 38082 ft 415 kts 190°
2026-05-04 03:52 -29.93765 -57.63077 38085 ft 415 kts 190°
2026-05-04 03:52 -29.99545 -57.63210 38085 ft 415 kts 190°
2026-05-04 03:53 -30.05352 -57.63343 38080 ft 414 kts 190°
2026-05-04 03:53 -30.11154 -57.63476 38079 ft 414 kts 190°
2026-05-04 03:54 -30.16909 -57.63609 38086 ft 414 kts 190°
2026-05-04 03:54 -30.22665 -57.63752 38080 ft 412 kts 191°
2026-05-04 03:55 -30.28226 -57.64556 38082 ft 402 kts 200°
2026-05-04 03:55 -30.33572 -57.66257 38078 ft 397 kts 204°
2026-05-04 03:56 -30.38902 -57.68103 38080 ft 397 kts 204°
2026-05-04 03:56 -30.44182 -57.69933 38082 ft 397 kts 204°
2026-05-04 03:57 -30.49516 -57.71793 38079 ft 397 kts 204°
2026-05-04 03:57 -30.54768 -57.73629 38077 ft 397 kts 204°
2026-05-04 03:58 -30.62776 -57.76432 38078 ft 397 kts 204°
2026-05-04 03:58 -30.68023 -57.78271 38086 ft 397 kts 204°
2026-05-04 03:59 -30.73356 -57.80135 38083 ft 397 kts 204°
2026-05-04 03:59 -30.78656 -57.81979 38084 ft 397 kts 204°
2026-05-04 04:00 -30.83914 -57.83811 38086 ft 397 kts 204°
2026-05-04 04:00 -30.89250 -57.85674 38086 ft 398 kts 204°
2026-05-04 04:01 -30.94518 -57.87515 38083 ft 398 kts 204°
2026-05-04 04:01 -30.99814 -57.89369 38085 ft 398 kts 204°
2026-05-04 04:02 -31.05108 -57.91224 38076 ft 398 kts 204°
2026-05-04 04:02 -31.10406 -57.93083 38081 ft 398 kts 204°
2026-05-04 04:03 -31.15713 -57.94946 38083 ft 398 kts 204°
2026-05-04 04:03 -31.21022 -57.96813 38077 ft 398 kts 204°
2026-05-04 04:04 -31.26274 -57.98662 38073 ft 398 kts 204°
2026-05-04 04:04 -31.31589 -58.00535 38081 ft 398 kts 204°
2026-05-04 04:05 -31.36901 -58.02410 38080 ft 399 kts 204°
2026-05-04 04:05 -31.42210 -58.04285 38052 ft 399 kts 204°
2026-05-04 04:06 -31.47532 -58.06167 38055 ft 400 kts 204°
2026-05-04 04:06 -31.52866 -58.08056 38065 ft 400 kts 204°
2026-05-04 04:07 -31.58193 -58.09945 38068 ft 400 kts 204°
2026-05-04 04:07 -31.63519 -58.11835 38076 ft 401 kts 204°
2026-05-04 04:08 -31.68858 -58.13733 38081 ft 401 kts 204°
2026-05-04 04:08 -31.74202 -58.15633 38087 ft 401 kts 204°
2026-05-04 04:09 -31.79499 -58.17520 38083 ft 401 kts 204°
2026-05-04 04:09 -31.84838 -58.19424 38085 ft 401 kts 204°
2026-05-04 04:10 -31.90176 -58.21330 38084 ft 401 kts 204°
2026-05-04 04:10 -31.95509 -58.23237 38083 ft 401 kts 204°
2026-05-04 04:11 -32.00845 -58.25147 38089 ft 401 kts 204°
2026-05-04 04:11 -32.06183 -58.27060 38080 ft 401 kts 204°
2026-05-04 04:12 -32.11517 -58.28974 38085 ft 400 kts 204°
2026-05-04 04:12 -32.16911 -58.30911 38069 ft 400 kts 204°
2026-05-04 04:13 -32.22312 -58.32854 38068 ft 400 kts 204°
2026-05-04 04:13 -32.27606 -58.34761 38065 ft 400 kts 204°
2026-05-04 04:14 -32.32925 -58.36679 38064 ft 400 kts 204°
2026-05-04 04:14 -32.38278 -58.38611 38063 ft 400 kts 204°
2026-05-04 04:15 -32.43596 -58.40532 38063 ft 400 kts 204°
2026-05-04 04:15 -32.48920 -58.42457 38065 ft 400 kts 204°
2026-05-04 04:16 -32.54247 -58.44387 38068 ft 400 kts 204°
2026-05-04 04:16 -32.59606 -58.46330 38069 ft 401 kts 204°
2026-05-04 04:17 -32.64067 -58.47950 38065 ft 401 kts 204°
2026-05-04 04:17 -32.69420 -58.49895 38068 ft 401 kts 204°
2026-05-04 04:18 -32.74768 -58.51842 38064 ft 402 kts 204°
2026-05-04 04:18 -32.80112 -58.53789 38069 ft 402 kts 204°
2026-05-04 04:19 -32.85430 -58.55729 38068 ft 403 kts 204°
2026-05-04 04:19 -32.90791 -58.57687 38072 ft 403 kts 204°
2026-05-04 04:20 -32.96190 -58.59661 38070 ft 403 kts 204°
2026-05-04 04:20 -33.01638 -58.61351 38071 ft 410 kts 197°
2026-05-04 04:21 -33.07354 -58.62134 38066 ft 414 kts 193°
2026-05-04 04:21 -33.13125 -58.62811 38069 ft 414 kts 193°
2026-05-04 04:22 -33.18899 -58.63489 38072 ft 414 kts 193°
2026-05-04 04:22 -33.24625 -58.64155 38074 ft 414 kts 193°
2026-05-04 04:23 -33.30387 -58.64824 38077 ft 413 kts 193°
2026-05-04 04:23 -33.36105 -58.65489 38073 ft 412 kts 193°
2026-05-04 04:24 -33.41851 -58.66158 38058 ft 409 kts 193°
2026-05-04 04:24 -33.47428 -58.66799 37589 ft 393 kts 193°
2026-05-04 04:25 -33.50145 -58.67117 37015 ft 390 kts 193°
2026-05-04 04:25 -33.52801 -58.67430 36461 ft 387 kts 193°
2026-05-04 04:25 -33.55467 -58.67743 35927 ft 383 kts 193°
2026-05-04 04:25 -33.58109 -58.68053 35413 ft 380 kts 193°
2026-05-04 04:26 -33.60728 -58.68361 34901 ft 377 kts 193°
2026-05-04 04:26 -33.63327 -58.68666 34396 ft 374 kts 193°
2026-05-04 04:26 -33.65901 -58.68968 33880 ft 371 kts 193°
2026-05-04 04:26 -33.68461 -58.69269 33320 ft 368 kts 193°
2026-05-04 04:27 -33.70995 -58.69567 32766 ft 365 kts 193°
2026-05-04 04:27 -33.73526 -58.69865 32221 ft 363 kts 193°
2026-05-04 04:27 -33.76020 -58.70158 31688 ft 360 kts 193°
2026-05-04 04:27 -33.78510 -58.70451 31161 ft 358 kts 193°
2026-05-04 04:28 -33.80933 -58.70736 30650 ft 356 kts 193°
2026-05-04 04:28 -33.83404 -58.71027 30145 ft 354 kts 193°
2026-05-04 04:28 -33.85849 -58.71315 29593 ft 351 kts 193°
2026-05-04 04:28 -33.88263 -58.71599 29057 ft 348 kts 193°
2026-05-04 04:29 -33.90700 -58.71886 28521 ft 345 kts 193°
2026-05-04 04:29 -33.93138 -58.72171 27979 ft 343 kts 193°
2026-05-04 04:29 -33.95508 -58.72423 27489 ft 340 kts 193°
2026-05-04 04:29 -33.97828 -58.72656 26984 ft 338 kts 193°
2026-05-04 04:30 -34.00165 -58.72890 26488 ft 335 kts 193°
2026-05-04 04:30 -34.02477 -58.73124 26007 ft 333 kts 193°
2026-05-04 04:30 -34.04782 -58.73359 25528 ft 331 kts 193°
2026-05-04 04:30 -34.07097 -58.73597 25061 ft 329 kts 193°
2026-05-04 04:31 -34.09373 -58.73832 24606 ft 327 kts 193°
2026-05-04 04:31 -34.11620 -58.74064 24163 ft 325 kts 193°
2026-05-04 04:31 -34.13844 -58.74294 23725 ft 323 kts 193°
2026-05-04 04:31 -34.16105 -58.74529 23230 ft 321 kts 193°
2026-05-04 04:32 -34.18329 -58.74759 22755 ft 319 kts 193°
2026-05-04 04:32 -34.20532 -58.74988 22269 ft 316 kts 192°
2026-05-04 04:32 -34.22699 -58.75213 21783 ft 315 kts 192°
2026-05-04 04:32 -34.24889 -58.75440 21330 ft 313 kts 192°
2026-05-04 04:33 -34.27047 -58.75664 20882 ft 311 kts 192°
2026-05-04 04:33 -34.29197 -58.75888 20429 ft 309 kts 192°
2026-05-04 04:33 -34.31355 -58.76012 19973 ft 312 kts 185°
2026-05-04 04:33 -34.33494 -58.75666 19546 ft 319 kts 174°
2026-05-04 04:34 -34.35616 -58.74820 19126 ft 323 kts 166°
2026-05-04 04:34 -34.37722 -58.73846 18720 ft 321 kts 167°
2026-05-04 04:34 -34.39817 -58.72893 18303 ft 319 kts 167°
2026-05-04 04:34 -34.41891 -58.71957 17857 ft 317 kts 167°
2026-05-04 04:35 -34.43923 -58.71040 17423 ft 314 kts 167°
2026-05-04 04:35 -34.45967 -58.70118 16980 ft 312 kts 166°
2026-05-04 04:35 -34.47992 -58.69202 16552 ft 310 kts 166°
2026-05-04 04:35 -34.50002 -58.68292 16131 ft 308 kts 166°
2026-05-04 04:36 -34.52034 -58.67373 15707 ft 306 kts 165°
2026-05-04 04:36 -34.53997 -58.66484 15273 ft 304 kts 165°
2026-05-04 04:36 -34.55974 -58.65588 14868 ft 302 kts 165°
2026-05-04 04:36 -34.57980 -58.64679 14462 ft 300 kts 165°
2026-05-04 04:37 -34.63795 -58.62036 13235 ft 294 kts 164°
2026-05-04 04:37 -34.65676 -58.61180 12848 ft 292 kts 164°
2026-05-04 04:38 -34.67578 -58.60313 12434 ft 290 kts 164°
2026-05-04 04:38 -34.69483 -58.59445 12013 ft 288 kts 164°
2026-05-04 04:38 -34.71360 -58.58590 11593 ft 286 kts 164°
2026-05-04 04:38 -34.73221 -58.57742 11208 ft 284 kts 163°
2026-05-04 04:39 -34.75054 -58.56905 10794 ft 282 kts 163°
2026-05-04 04:39 -34.76891 -58.56066 10398 ft 280 kts 163°
2026-05-04 04:39 -34.78686 -58.55246 10010 ft 279 kts 163°
2026-05-04 04:39 -34.80515 -58.54410 9586 ft 277 kts 163°
2026-05-04 04:40 -34.82288 -58.53601 9154 ft 275 kts 165°
2026-05-04 04:40 -34.84118 -58.52938 8717 ft 273 kts 168°
2026-05-04 04:40 -34.85942 -58.52309 8294 ft 272 kts 168°
2026-05-04 04:40 -34.87758 -58.51679 7880 ft 271 kts 168°
2026-05-04 04:41 -34.89564 -58.51051 7465 ft 269 kts 167°
2026-05-04 04:41 -34.91363 -58.50424 7055 ft 268 kts 167°
2026-05-04 04:41 -34.93148 -58.49801 6642 ft 268 kts 167°
2026-05-04 04:41 -34.94932 -58.49178 6250 ft 267 kts 167°
2026-05-04 04:42 -34.96717 -58.48556 5866 ft 265 kts 167°
2026-05-04 04:42 -34.98445 -58.47951 5737 ft 253 kts 167°
2026-05-04 04:42 -35.00076 -58.47377 5570 ft 244 kts 167°
2026-05-04 04:42 -35.01707 -58.46807 5263 ft 243 kts 166°
2026-05-04 04:43 -35.03328 -58.46241 4946 ft 243 kts 166°
2026-05-04 04:43 -35.04962 -58.45671 4629 ft 243 kts 166°
2026-05-04 04:43 -35.06562 -58.45111 4503 ft 242 kts 166°
2026-05-04 04:43 -35.08191 -58.44540 4495 ft 242 kts 166°
2026-05-04 04:44 -35.09834 -58.44270 4492 ft 237 kts 189°
2026-05-04 04:44 -35.11332 -58.45011 4493 ft 232 kts 221°
2026-05-04 04:44 -35.12260 -58.46555 4450 ft 226 kts 252°
2026-05-04 04:44 -35.12378 -58.48429 4147 ft 223 kts 284°
2026-05-04 04:45 -35.11640 -58.50070 3802 ft 224 kts 316°
2026-05-04 04:45 -35.10294 -58.50939 3484 ft 225 kts 348°
2026-05-04 04:45 -35.08744 -58.50778 3204 ft 226 kts 18°
2026-05-04 04:47 -35.01191 -58.46713 2402 ft 187 kts 360°
2026-05-04 04:47 -34.99943 -58.46836 2404 ft 177 kts 350°
2026-05-04 04:47 -34.98731 -58.47161 2404 ft 178 kts 345°
2026-05-04 04:47 -34.97540 -58.47568 2401 ft 178 kts 343°
2026-05-04 04:48 -34.96399 -58.47965 2398 ft 154 kts 343°
2026-05-04 04:49 -34.93040 -58.49137 1879 ft 120 kts 343°
2026-05-04 04:49 -34.92508 -58.49323 1772 ft 120 kts 343°
2026-05-04 04:49 -34.91710 -58.49601 1608 ft 120 kts 343°
2026-05-04 04:49 -34.90648 -58.49972 1395 ft 119 kts 343°
2026-05-04 04:50 -34.89849 -58.50251 1229 ft 120 kts 342°
2026-05-04 04:50 -34.89046 -58.50530 1066 ft 119 kts 342°
2026-05-04 04:50 -34.88246 -58.50810 893 ft 120 kts 342°
2026-05-04 04:50 -34.87705 -58.50999 812 ft 120 kts 342°
2026-05-04 04:51 -34.86916 -58.51274 714 ft 119 kts 343°
2026-05-04 04:51 -34.86127 -58.51549 624 ft 118 kts 343°
2026-05-04 04:51 -34.85337 -58.51824 515 ft 117 kts 343°
2026-05-04 04:51 -34.84555 -58.52097 378 ft 117 kts 343°
2026-05-04 04:52 -34.83776 -58.52370 229 ft 116 kts 344°
2026-05-04 04:52 -34.83002 -58.52640 96 ft 114 kts 343°
2026-05-04 04:52 -34.82364 -58.52863 73 ft 63 kts 344°
2026-05-04 04:52 -34.82154 -58.52935 67 ft 24 kts 345°
2026-05-04 04:53 -34.82023 -58.53048 67 ft 23 kts 296°
2026-05-04 04:53 -34.81996 -58.53175 68 ft 0 kts 283°
2026-05-04 04:54 -34.81995 -58.53178 68 ft 3 kts 283°
2026-05-04 04:54 -34.81981 -58.53253 65 ft 14 kts 283°
2026-05-04 04:54 -34.81953 -58.53391 70 ft 20 kts 284°
2026-05-04 04:55 -34.81886 -58.53541 68 ft 22 kts 342°
2026-05-04 04:55 -34.81757 -58.53459 66 ft 23 kts 44°
2026-05-04 04:55 -34.81638 -58.53307 71 ft 27 kts 45°
2026-05-04 04:55 -34.81499 -58.53269 69 ft 18 kts 308°
2026-05-04 04:56 -34.81443 -58.53407 71 ft 20 kts 298°
2026-05-04 04:56 -34.81386 -58.53578 73 ft 19 kts 254°
2026-05-04 04:56 -34.81496 -58.53650 64 ft 21 kts 195°
2026-05-04 04:56 -34.81532 -58.53695 65 ft 4 kts 286°
2026-05-04 04:57 -34.81502 -58.53718 70 ft 8 kts 326°
2026-05-04 04:57 -34.81465 -58.53752 70 ft 5 kts 324°
2026-05-04 04:57 -34.81458 -58.53758 73 ft 0 kts 324°